Wetterdaten: Samstag, 06.02.2016
Datum Zeit Temp. A. Feuchte A. Luftdruck Regen Wind Richtung Richtung Sonnenschein ET UV Solar Taupunkt Windchill Windben Empfang
06.02.2016 00:00 1,3 C 96 % 1026,5 hPa 0,0 l/m 3,4 km/h (1 Bft) NO 51 0 min 0,000 mm 0,0 UV-I 0 W/m 0,7 C 1,3 C 4,8 km/h (1 Bft) 99,12 %
06.02.2016 00:05 1,3 C 97 % 1026,4 hPa 0,0 l/m 3,7 km/h (1 Bft) NO 51 0 min 0,000 mm 0,0 UV-I 0 W/m 0,9 C 1,3 C 4,8 km/h (1 Bft) 76,74 %
06.02.2016 00:10 1,3 C 97 % 1026,4 hPa 0,0 l/m 3,8 km/h (1 Bft) O-NO 70 0 min 0,000 mm 0,0 UV-I 0 W/m 0,9 C 1,3 C 6,4 km/h (2 Bft) 99,11 %
06.02.2016 00:15 1,3 C 97 % 1026,2 hPa 0,0 l/m 5,1 km/h (1 Bft) O 93 0 min 0,000 mm 0,0 UV-I 0 W/m 0,9 C 1,3 C 11,3 km/h (2 Bft) 97,37 %
06.02.2016 00:20 1,2 C 97 % 1026,2 hPa 0,0 l/m 5,9 km/h (2 Bft) O-NO 59 0 min 0,000 mm 0,0 UV-I 0 W/m 0,8 C 1,2 C 9,7 km/h (2 Bft) 97,39 %
06.02.2016 00:25 1,4 C 97 % 1026,2 hPa 0,0 l/m 5,8 km/h (2 Bft) O 83 0 min 0,000 mm 0,0 UV-I 0 W/m 1,0 C 1,4 C 11,3 km/h (2 Bft) 96,75 %
06.02.2016 00:30 1,5 C 96 % 1026,1 hPa 0,0 l/m 2,7 km/h (1 Bft) O-NO 75 0 min 0,000 mm 0,0 UV-I 0 W/m 0,9 C 1,5 C 6,4 km/h (2 Bft) 97,46 %
06.02.2016 00:35 1,1 C 96 % 1026,0 hPa 0,0 l/m 3,5 km/h (1 Bft) O-NO 77 0 min 0,000 mm 0,0 UV-I 0 W/m 0,5 C 1,1 C 6,4 km/h (2 Bft) 97,58 %
06.02.2016 00:40 1,4 C 97 % 1026,0 hPa 0,0 l/m 3,5 km/h (1 Bft) O-NO 69 0 min 0,000 mm 0,0 UV-I 0 W/m 1,0 C 1,4 C 6,4 km/h (2 Bft) 96,30 %
06.02.2016 00:45 1,6 C 97 % 1025,9 hPa 0,0 l/m 3,5 km/h (1 Bft) O-NO 69 0 min 0,000 mm 0,0 UV-I 0 W/m 1,2 C 1,6 C 6,4 km/h (2 Bft) 97,52 %
06.02.2016 00:50 1,5 C 96 % 1025,8 hPa 0,0 l/m 3,7 km/h (1 Bft) O-NO 69 0 min 0,000 mm 0,0 UV-I 0 W/m 0,9 C 1,5 C 4,8 km/h (1 Bft) 98,26 %
06.02.2016 00:55 1,6 C 96 % 1025,8 hPa 0,0 l/m 2,6 km/h (1 Bft) O-NO 69 0 min 0,000 mm 0,0 UV-I 0 W/m 1,0 C 1,6 C 4,8 km/h (1 Bft) 100,00 %
06.02.2016 01:00 1,5 C 96 % 1025,7 hPa 0,0 l/m 3,0 km/h (1 Bft) O-NO 69 0 min 0,000 mm 0,0 UV-I 0 W/m 0,9 C 1,5 C 4,8 km/h (1 Bft) 98,17 %
06.02.2016 01:05 1,3 C 96 % 1025,7 hPa 0,0 l/m 3,1 km/h (1 Bft) O-NO 69 0 min 0,000 mm 0,0 UV-I 0 W/m 0,7 C 1,3 C 4,8 km/h (1 Bft) 100,00 %
06.02.2016 01:10 1,1 C 96 % 1025,7 hPa 0,0 l/m 2,5 km/h (1 Bft) O-NO 69 0 min 0,000 mm 0,0 UV-I 0 W/m 0,5 C 1,1 C 4,8 km/h (1 Bft) 100,00 %
06.02.2016 01:15 1,0 C 96 % 1025,6 hPa 0,0 l/m 3,1 km/h (1 Bft) O-NO 69 0 min 0,000 mm 0,0 UV-I 0 W/m 0,4 C 1,0 C 4,8 km/h (1 Bft) 99,11 %
06.02.2016 01:20 1,0 C 97 % 1025,5 hPa 0,0 l/m 4,1 km/h (1 Bft) O-NO 68 0 min 0,000 mm 0,0 UV-I 0 W/m 0,6 C 1,0 C 6,4 km/h (2 Bft) 100,00 %
06.02.2016 01:25 1,1 C 97 % 1025,5 hPa 0,0 l/m 3,4 km/h (1 Bft) O-NO 68 0 min 0,000 mm 0,0 UV-I 0 W/m 0,7 C 1,1 C 4,8 km/h (1 Bft) 98,43 %
06.02.2016 01:30 0,9 C 97 % 1025,5 hPa 0,0 l/m 2,3 km/h (1 Bft) O-NO 68 0 min 0,000 mm 0,0 UV-I 0 W/m 0,5 C 0,9 C 4,8 km/h (1 Bft) 98,21 %
06.02.2016 01:35 0,8 C 97 % 1025,5 hPa 0,0 l/m 2,3 km/h (1 Bft) O-NO 68 0 min 0,000 mm 0,0 UV-I 0 W/m 0,4 C 0,8 C 3,2 km/h (1 Bft) 100,00 %
06.02.2016 01:40 0,7 C 97 % 1025,5 hPa 0,0 l/m 2,2 km/h (1 Bft) O-NO 68 0 min 0,000 mm 0,0 UV-I 0 W/m 0,3 C 0,7 C 3,2 km/h (1 Bft) 98,17 %
06.02.2016 01:45 0,7 C 97 % 1025,5 hPa 0,0 l/m 2,2 km/h (1 Bft) O-NO 68 0 min 0,000 mm 0,0 UV-I 0 W/m 0,3 C 0,7 C 3,2 km/h (1 Bft) 99,13 %
06.02.2016 01:50 0,6 C 97 % 1025,5 hPa 0,0 l/m 2,7 km/h (1 Bft) O-NO 68 0 min 0,000 mm 0,0 UV-I 0 W/m 0,2 C 0,6 C 4,8 km/h (1 Bft) 100,00 %
06.02.2016 01:55 0,7 C 97 % 1025,5 hPa 0,0 l/m 2,6 km/h (1 Bft) O-NO 68 0 min 0,000 mm 0,0 UV-I 0 W/m 0,3 C 0,7 C 4,8 km/h (1 Bft) 100,00 %
06.02.2016 02:00 0,7 C 97 % 1025,4 hPa 0,0 l/m 2,4 km/h (1 Bft) O-NO 68 0 min 0,000 mm 0,0 UV-I 0 W/m 0,3 C 0,7 C 4,8 km/h (1 Bft) 100,00 %
06.02.2016 02:05 0,8 C 97 % 1025,3 hPa 0,0 l/m 3,7 km/h (1 Bft) O-NO 61 0 min 0,000 mm 0,0 UV-I 0 W/m 0,4 C 0,8 C 6,4 km/h (2 Bft) 99,13 %
06.02.2016 02:10 0,9 C 97 % 1025,3 hPa 0,0 l/m 4,2 km/h (1 Bft) O-NO 66 0 min 0,000 mm 0,0 UV-I 0 W/m 0,5 C 0,9 C 6,4 km/h (2 Bft) 100,00 %
06.02.2016 02:15 0,9 C 97 % 1025,2 hPa 0,0 l/m 4,8 km/h (1 Bft) O-NO 67 0 min 0,000 mm 0,0 UV-I 0 W/m 0,5 C 0,9 C 6,4 km/h (2 Bft) 100,00 %
06.02.2016 02:20 0,9 C 97 % 1025,2 hPa 0,0 l/m 3,7 km/h (1 Bft) O-NO 67 0 min 0,000 mm 0,0 UV-I 0 W/m 0,5 C 0,9 C 6,4 km/h (2 Bft) 99,08 %
06.02.2016 02:25 0,9 C 97 % 1025,1 hPa 0,0 l/m 4,7 km/h (1 Bft) NO 56 0 min 0,000 mm 0,0 UV-I 0 W/m 0,5 C 0,9 C 6,4 km/h (2 Bft) 95,83 %
06.02.2016 02:30 0,9 C 97 % 1025,0 hPa 0,0 l/m 4,3 km/h (1 Bft) O-NO 76 0 min 0,000 mm 0,0 UV-I 0 W/m 0,5 C 0,9 C 6,4 km/h (2 Bft) 94,07 %
06.02.2016 02:35 0,9 C 97 % 1025,0 hPa 0,0 l/m 5,2 km/h (1 Bft) O-NO 70 0 min 0,000 mm 0,0 UV-I 0 W/m 0,5 C 0,9 C 8,0 km/h (2 Bft) 98,21 %
06.02.2016 02:40 0,9 C 97 % 1025,0 hPa 0,0 l/m 3,6 km/h (1 Bft) O-NO 73 0 min 0,000 mm 0,0 UV-I 0 W/m 0,5 C 0,9 C 6,4 km/h (2 Bft) 96,67 %
06.02.2016 02:45 0,8 C 97 % 1025,0 hPa 0,0 l/m 4,0 km/h (1 Bft) O-NO 74 0 min 0,000 mm 0,0 UV-I 0 W/m 0,4 C 0,8 C 8,0 km/h (2 Bft) 96,77 %
06.02.2016 02:50 0,4 C 97 % 1024,9 hPa 0,0 l/m 0,6 km/h (0 Bft) O-NO 74 0 min 0,000 mm 0,0 UV-I 0 W/m -0,0 C 0,4 C 3,2 km/h (1 Bft) 95,41 %
06.02.2016 02:55 0,0 C 97 % 1024,8 hPa 0,0 l/m 0,5 km/h (0 Bft) O-NO 74 0 min 0,000 mm 0,0 UV-I 0 W/m -0,4 C 0,0 C 3,2 km/h (1 Bft) 98,33 %
06.02.2016 03:00 -0,2 C 97 % 1024,8 hPa 0,0 l/m 0,2 km/h (0 Bft) O-NO 74 0 min 0,000 mm 0,0 UV-I 0 W/m -0,6 C -0,2 C 1,6 km/h (1 Bft) 99,13 %
06.02.2016 03:05 -0,1 C 97 % 1024,7 hPa 0,0 l/m 0,2 km/h (0 Bft) O-NO 74 0 min 0,000 mm 0,0 UV-I 0 W/m -0,5 C -0,1 C 1,6 km/h (1 Bft) 99,19 %
06.02.2016 03:10 -0,1 C 97 % 1024,7 hPa 0,0 l/m 0,6 km/h (0 Bft) O-NO 74 0 min 0,000 mm 0,0 UV-I 0 W/m -0,5 C -0,1 C 1,6 km/h (1 Bft) 100,00 %
06.02.2016 03:15 -0,4 C 97 % 1024,6 hPa 0,0 l/m 0,3 km/h (0 Bft) O-NO 74 0 min 0,000 mm 0,0 UV-I 0 W/m -0,8 C -0,4 C 3,2 km/h (1 Bft) 97,64 %
06.02.2016 03:20 -0,7 C 97 % 1024,5 hPa 0,0 l/m 0,1 km/h (0 Bft) O-NO 74 0 min 0,000 mm 0,0 UV-I 0 W/m -1,1 C -0,7 C 1,6 km/h (1 Bft) 97,30 %
06.02.2016 03:25 -0,7 C 97 % 1024,5 hPa 0,0 l/m 1,8 km/h (1 Bft) O-NO 74 0 min 0,000 mm 0,0 UV-I 0 W/m -1,1 C -0,7 C 3,2 km/h (1 Bft) 99,17 %
06.02.2016 03:30 -0,7 C 97 % 1024,5 hPa 0,0 l/m 0,2 km/h (0 Bft) O-NO 74 0 min 0,000 mm 0,0 UV-I 0 W/m -1,1 C -0,7 C 1,6 km/h (1 Bft) 100,00 %
06.02.2016 03:35 -0,8 C 97 % 1024,4 hPa 0,0 l/m 0,0 km/h (0 Bft) O-NO 74 0 min 0,000 mm 0,0 UV-I 0 W/m -1,2 C -0,8 C 1,6 km/h (1 Bft) 99,15 %
06.02.2016 03:40 -1,1 C 97 % 1024,3 hPa 0,0 l/m 2,4 km/h (1 Bft) O 93 0 min 0,000 mm 0,0 UV-I 0 W/m -1,5 C -1,1 C 3,2 km/h (1 Bft) 99,15 %
06.02.2016 03:45 -1,2 C 97 % 1024,2 hPa 0,0 l/m 2,5 km/h (1 Bft) O-NO 77 0 min 0,000 mm 0,0 UV-I 0 W/m -1,6 C -1,2 C 4,8 km/h (1 Bft) 100,00 %
06.02.2016 03:50 -0,3 C 98 % 1024,2 hPa 0,0 l/m 2,6 km/h (1 Bft) O-NO 77 0 min 0,000 mm 0,0 UV-I 0 W/m -0,6 C -0,3 C 4,8 km/h (1 Bft) 100,00 %
06.02.2016 03:55 -0,7 C 98 % 1024,3 hPa 0,0 l/m 0,6 km/h (0 Bft) O-NO 77 0 min 0,000 mm 0,0 UV-I 0 W/m -1,0 C -0,7 C 3,2 km/h (1 Bft) 98,17 %
06.02.2016 04:00 -1,3 C 97 % 1024,3 hPa 0,0 l/m 0,0 km/h (0 Bft) O-NO 77 0 min 0,000 mm 0,0 UV-I 0 W/m -1,7 C -1,3 C 0,0 km/h (0 Bft) 100,00 %
06.02.2016 04:05 -1,4 C 97 % 1024,2 hPa 0,0 l/m 0,0 km/h (0 Bft) O-NO 77 0 min 0,000 mm 0,0 UV-I 0 W/m -1,8 C -1,4 C 0,0 km/h (0 Bft) 100,00 %
06.02.2016 04:10 -1,4 C 97 % 1024,2 hPa 0,0 l/m 2,2 km/h (1 Bft) O-NO 77 0 min 0,000 mm 0,0 UV-I 0 W/m -1,8 C -1,4 C 3,2 km/h (1 Bft) 98,33 %
06.02.2016 04:15 -1,1 C 98 % 1024,3 hPa 0,0 l/m 1,6 km/h (1 Bft) O-NO 77 0 min 0,000 mm 0,0 UV-I 0 W/m -1,4 C -1,1 C 3,2 km/h (1 Bft) 98,17 %
06.02.2016 04:20 -1,2 C 98 % 1024,3 hPa 0,0 l/m 0,0 km/h (0 Bft) O-NO 77 0 min 0,000 mm 0,0 UV-I 0 W/m -1,5 C -1,2 C 1,6 km/h (1 Bft) 100,00 %
06.02.2016 04:25 -1,4 C 97 % 1024,2 hPa 0,0 l/m 0,1 km/h (0 Bft) O-NO 77 0 min 0,000 mm 0,0 UV-I 0 W/m -1,8 C -1,4 C 1,6 km/h (1 Bft) 99,08 %
06.02.2016 04:30 -1,5 C 97 % 1024,2 hPa 0,0 l/m 0,4 km/h (0 Bft) O-NO 77 0 min 0,000 mm 0,0 UV-I 0 W/m -1,9 C -1,5 C 3,2 km/h (1 Bft) 99,19 %
06.02.2016 04:35 -1,4 C 98 % 1024,2 hPa 0,0 l/m 1,0 km/h (0 Bft) O-NO 77 0 min 0,000 mm 0,0 UV-I 0 W/m -1,7 C -1,4 C 3,2 km/h (1 Bft) 97,39 %
06.02.2016 04:40 -1,4 C 98 % 1024,2 hPa 0,0 l/m 1,2 km/h (1 Bft) O 89 0 min 0,000 mm 0,0 UV-I 0 W/m -1,7 C -1,4 C 3,2 km/h (1 Bft) 96,67 %
06.02.2016 04:45 -1,3 C 98 % 1024,1 hPa 0,0 l/m 0,8 km/h (0 Bft) O 89 0 min 0,000 mm 0,0 UV-I 0 W/m -1,6 C -1,3 C 3,2 km/h (1 Bft) 97,32 %
06.02.2016 04:50 -1,3 C 98 % 1024,2 hPa 0,0 l/m 0,4 km/h (0 Bft) O 89 0 min 0,000 mm 0,0 UV-I 0 W/m -1,6 C -1,3 C 1,6 km/h (1 Bft) 96,83 %
06.02.2016 04:55 -1,2 C 98 % 1024,2 hPa 0,0 l/m 0,8 km/h (0 Bft) O 89 0 min 0,000 mm 0,0 UV-I 0 W/m -1,5 C -1,2 C 3,2 km/h (1 Bft) 98,26 %
06.02.2016 05:00 -1,2 C 98 % 1024,1 hPa 0,0 l/m 0,0 km/h (0 Bft) O 89 0 min 0,000 mm 0,0 UV-I 0 W/m -1,5 C -1,2 C 0,0 km/h (0 Bft) 95,76 %
06.02.2016 05:05 -1,2 C 98 % 1024,0 hPa 0,0 l/m 0,0 km/h (0 Bft) O 89 0 min 0,000 mm 0,0 UV-I 0 W/m -1,5 C -1,2 C 0,0 km/h (0 Bft) 98,33 %
06.02.2016 05:10 -1,3 C 98 % 1024,0 hPa 0,0 l/m 0,0 km/h (0 Bft) O 89 0 min 0,000 mm 0,0 UV-I 0 W/m -1,6 C -1,3 C 0,0 km/h (0 Bft) 98,17 %
06.02.2016 05:15 -1,3 C 98 % 1024,1 hPa 0,0 l/m 0,0 km/h (0 Bft) O 89 0 min 0,000 mm 0,0 UV-I 0 W/m -1,6 C -1,3 C 0,0 km/h (0 Bft) 96,69 %
06.02.2016 05:20 -1,4 C 98 % 1024,0 hPa 0,0 l/m 0,0 km/h (0 Bft) O 89 0 min 0,000 mm 0,0 UV-I 0 W/m -1,7 C -1,4 C 1,6 km/h (1 Bft) 98,20 %
06.02.2016 05:25 -1,4 C 98 % 1023,9 hPa 0,0 l/m 0,6 km/h (0 Bft) O 89 0 min 0,000 mm 0,0 UV-I 0 W/m -1,7 C -1,4 C 3,2 km/h (1 Bft) 100,00 %
06.02.2016 05:30 -1,4 C 98 % 1023,8 hPa 0,0 l/m 0,5 km/h (0 Bft) O 89 0 min 0,000 mm 0,0 UV-I 0 W/m -1,7 C -1,4 C 3,2 km/h (1 Bft) 99,00 %
06.02.2016 05:35 -1,4 C 98 % 1023,7 hPa 0,0 l/m 0,9 km/h (0 Bft) O 89 0 min 0,000 mm 0,0 UV-I 0 W/m -1,7 C -1,4 C 3,2 km/h (1 Bft) 100,00 %
06.02.2016 05:40 -1,6 C 98 % 1023,7 hPa 0,0 l/m 0,3 km/h (0 Bft) O 89 0 min 0,000 mm 0,0 UV-I 0 W/m -1,9 C -1,6 C 1,6 km/h (1 Bft) 100,00 %
06.02.2016 05:45 -1,6 C 98 % 1023,7 hPa 0,0 l/m 0,8 km/h (0 Bft) O 89 0 min 0,000 mm 0,0 UV-I 0 W/m -1,9 C -1,6 C 3,2 km/h (1 Bft) 99,19 %
06.02.2016 05:50 -1,6 C 98 % 1023,6 hPa 0,0 l/m 0,3 km/h (0 Bft) O 89 0 min 0,000 mm 0,0 UV-I 0 W/m -1,9 C -1,6 C 1,6 km/h (1 Bft) 99,15 %
06.02.2016 05:55 -1,7 C 98 % 1023,5 hPa 0,0 l/m 1,0 km/h (0 Bft) O 89 0 min 0,000 mm 0,0 UV-I 0 W/m -2,0 C -1,7 C 3,2 km/h (1 Bft) 99,11 %
06.02.2016 06:00 -1,8 C 98 % 1023,5 hPa 0,0 l/m 0,0 km/h (0 Bft) O 89 0 min 0,000 mm 0,0 UV-I 0 W/m -2,1 C -1,8 C 0,0 km/h (0 Bft) 99,12 %
06.02.2016 06:05 -1,9 C 98 % 1023,6 hPa 0,0 l/m 0,1 km/h (0 Bft) O 89 0 min 0,000 mm 0,0 UV-I 0 W/m -2,2 C -1,9 C 1,6 km/h (1 Bft) 98,39 %
06.02.2016 06:10 -1,9 C 98 % 1023,5 hPa 0,0 l/m 0,5 km/h (0 Bft) O 89 0 min 0,000 mm 0,0 UV-I 0 W/m -2,2 C -1,9 C 1,6 km/h (1 Bft) 100,00 %
06.02.2016 06:15 -2,0 C 98 % 1023,5 hPa 0,0 l/m 0,0 km/h (0 Bft) O 89 0 min 0,000 mm 0,0 UV-I 0 W/m -2,3 C -2,0 C 1,6 km/h (1 Bft) 98,29 %
06.02.2016 06:20 -2,1 C 98 % 1023,5 hPa 0,0 l/m 0,0 km/h (0 Bft) O 89 0 min 0,000 mm 0,0 UV-I 0 W/m -2,4 C -2,1 C 1,6 km/h (1 Bft) 98,39 %
06.02.2016 06:25 -2,1 C 98 % 1023,5 hPa 0,0 l/m 1,4 km/h (1 Bft) O 89 0 min 0,000 mm 0,0 UV-I 0 W/m -2,4 C -2,1 C 3,2 km/h (1 Bft) 99,08 %
06.02.2016 06:30 -2,2 C 98 % 1023,5 hPa 0,0 l/m 1,8 km/h (1 Bft) O-SO 102 0 min 0,000 mm 0,0 UV-I 0 W/m -2,5 C -2,2 C 4,8 km/h (1 Bft) 98,41 %
06.02.2016 06:35 -2,2 C 98 % 1023,4 hPa 0,0 l/m 3,8 km/h (1 Bft) S 184 0 min 0,000 mm 0,0 UV-I 0 W/m -2,5 C -2,2 C 4,8 km/h (1 Bft) 96,52 %
06.02.2016 06:40 -2,2 C 98 % 1023,4 hPa 0,0 l/m 2,5 km/h (1 Bft) S 184 0 min 0,000 mm 0,0 UV-I 0 W/m -2,5 C -2,2 C 4,8 km/h (1 Bft) 97,37 %
06.02.2016 06:45 -2,2 C 98 % 1023,4 hPa 0,0 l/m 3,0 km/h (1 Bft) S 184 0 min 0,000 mm 0,0 UV-I 0 W/m -2,5 C -2,2 C 4,8 km/h (1 Bft) 97,39 %
06.02.2016 06:50 -2,1 C 98 % 1023,5 hPa 0,0 l/m 2,8 km/h (1 Bft) S 184 0 min 0,000 mm 0,0 UV-I 0 W/m -2,4 C -2,1 C 4,8 km/h (1 Bft) 96,75 %
06.02.2016 06:55 -2,1 C 98 % 1023,4 hPa 0,0 l/m 2,7 km/h (1 Bft) S-SW 192 0 min 0,000 mm 0,0 UV-I 0 W/m -2,4 C -2,1 C 4,8 km/h (1 Bft) 98,17 %
06.02.2016 07:00 -2,1 C 98 % 1023,4 hPa 0,0 l/m 2,7 km/h (1 Bft) S-SW 192 0 min 0,000 mm 0,0 UV-I 0 W/m -2,4 C -2,1 C 4,8 km/h (1 Bft) 96,85 %
06.02.2016 07:05 -2,1 C 98 % 1023,5 hPa 0,0 l/m 2,5 km/h (1 Bft) S-SW 192 0 min 0,000 mm 0,0 UV-I 0 W/m -2,4 C -2,1 C 4,8 km/h (1 Bft) 96,58 %
06.02.2016 07:10 -2,0 C 98 % 1023,6 hPa 0,0 l/m 2,7 km/h (1 Bft) S-SW 192 0 min 0,000 mm 0,0 UV-I 0 W/m -2,3 C -2,0 C 4,8 km/h (1 Bft) 99,15 %
06.02.2016 07:15 -2,0 C 98 % 1023,6 hPa 0,0 l/m 2,8 km/h (1 Bft) S-SW 194 0 min 0,000 mm 0,0 UV-I 0 W/m -2,3 C -2,0 C 4,8 km/h (1 Bft) 99,08 %
06.02.2016 07:20 -1,9 C 98 % 1023,5 hPa 0,0 l/m 4,0 km/h (1 Bft) S-SW 198 0 min 0,000 mm 0,0 UV-I 0 W/m -2,2 C -1,9 C 4,8 km/h (1 Bft) 97,56 %
06.02.2016 07:25 -1,9 C 98 % 1023,4 hPa 0,0 l/m 2,2 km/h (1 Bft) S-SW 198 0 min 0,000 mm 0,0 UV-I 2 W/m -2,2 C -1,9 C 4,8 km/h (1 Bft) 100,00 %
06.02.2016 07:30 -1,9 C 98 % 1023,5 hPa 0,0 l/m 0,8 km/h (0 Bft) S-SW 198 0 min 0,000 mm 0,0 UV-I 5 W/m -2,2 C -1,9 C 3,2 km/h (1 Bft) 99,17 %
06.02.2016 07:35 -1,9 C 98 % 1023,6 hPa 0,0 l/m 1,4 km/h (1 Bft) S-SW 198 0 min 0,000 mm 0,0 UV-I 6 W/m -2,2 C -1,9 C 3,2 km/h (1 Bft) 100,00 %
06.02.2016 07:40 -1,9 C 98 % 1023,8 hPa 0,0 l/m 0,3 km/h (0 Bft) S-SW 198 0 min 0,000 mm 0,0 UV-I 9 W/m -2,2 C -1,9 C 1,6 km/h (1 Bft) 99,15 %
06.02.2016 07:45 -1,9 C 98 % 1023,8 hPa 0,0 l/m 1,5 km/h (1 Bft) S-SW 198 0 min 0,000 mm 0,0 UV-I 12 W/m -2,2 C -1,9 C 3,2 km/h (1 Bft) 100,00 %
06.02.2016 07:50 -1,9 C 98 % 1023,7 hPa 0,0 l/m 0,8 km/h (0 Bft) S-SW 198 0 min 0,000 mm 0,0 UV-I 16 W/m -2,2 C -1,9 C 3,2 km/h (1 Bft) 99,19 %
06.02.2016 07:55 -1,9 C 98 % 1023,9 hPa 0,0 l/m 0,3 km/h (0 Bft) S-SW 198 0 min 0,000 mm 0,0 UV-I 19 W/m -2,2 C -1,9 C 1,6 km/h (1 Bft) 99,11 %
06.02.2016 08:00 -1,8 C 98 % 1023,9 hPa 0,0 l/m 1,1 km/h (1 Bft) S-SW 198 0 min 0,000 mm 0,0 UV-I 28 W/m -2,1 C -1,8 C 3,2 km/h (1 Bft) 99,22 %
06.02.2016 08:05 -1,8 C 98 % 1023,9 hPa 0,0 l/m 1,3 km/h (1 Bft) S-SW 198 0 min 0,000 mm 0,0 UV-I 30 W/m -2,1 C -1,8 C 3,2 km/h (1 Bft) 100,00 %
06.02.2016 08:10 -1,8 C 98 % 1023,9 hPa 0,0 l/m 0,0 km/h (0 Bft) S-SW 198 0 min 0,000 mm 0,0 UV-I 32 W/m -2,1 C -1,8 C 0,0 km/h (0 Bft) 100,00 %
06.02.2016 08:15 -1,7 C 98 % 1023,9 hPa 0,0 l/m 0,3 km/h (0 Bft) S-SW 198 0 min 0,000 mm 0,0 UV-I 39 W/m -2,0 C -1,7 C 1,6 km/h (1 Bft) 97,56 %
06.02.2016 08:20 -1,7 C 98 % 1023,9 hPa 0,0 l/m 0,1 km/h (0 Bft) S-SW 198 0 min 0,000 mm 0,0 UV-I 41 W/m -2,0 C -1,7 C 1,6 km/h (1 Bft) 99,15 %
06.02.2016 08:25 -1,7 C 98 % 1023,9 hPa 0,0 l/m 0,0 km/h (0 Bft) S-SW 198 0 min 0,000 mm 0,0 UV-I 46 W/m -2,0 C -1,7 C 0,0 km/h (0 Bft) 100,00 %
06.02.2016 08:30 -1,7 C 98 % 1023,9 hPa 0,0 l/m 0,0 km/h (0 Bft) S-SW 198 0 min 0,000 mm 0,0 UV-I 54 W/m -2,0 C -1,7 C 0,0 km/h (0 Bft) 99,19 %
06.02.2016 08:35 -1,7 C 98 % 1023,8 hPa 0,0 l/m 0,1 km/h (0 Bft) S-SW 198 0 min 0,000 mm 0,0 UV-I 50 W/m -2,0 C -1,7 C 1,6 km/h (1 Bft) 98,35 %
06.02.2016 08:40 -1,7 C 98 % 1023,9 hPa 0,0 l/m 0,0 km/h (0 Bft) S-SW 198 0 min 0,000 mm 0,0 UV-I 53 W/m -2,0 C -1,7 C 0,0 km/h (0 Bft) 97,22 %
06.02.2016 08:45 -1,7 C 98 % 1023,8 hPa 0,0 l/m 0,0 km/h (0 Bft) S-SW 198 0 min 0,000 mm 0,0 UV-I 54 W/m -2,0 C -1,7 C 0,0 km/h (0 Bft) 97,46 %
06.02.2016 08:50 -1,6 C 98 % 1023,8 hPa 0,0 l/m 0,0 km/h (0 Bft) S-SW 198 0 min 0,000 mm 0,0 UV-I 66 W/m -1,9 C -1,6 C 0,0 km/h (0 Bft) 98,35 %
06.02.2016 08:55 -1,4 C 98 % 1023,8 hPa 0,0 l/m 0,0 km/h (0 Bft) S-SW 198 0 min 0,000 mm 0,0 UV-I 67 W/m -1,7 C -1,4 C 0,0 km/h (0 Bft) 96,49 %
06.02.2016 09:00 -1,4 C 98 % 1023,7 hPa 0,0 l/m 0,0 km/h (0 Bft) S-SW 198 0 min 0,025 mm 0,0 UV-I 69 W/m -1,7 C -1,4 C 0,0 km/h (0 Bft) 96,69 %
06.02.2016 09:05 -1,3 C 98 % 1023,7 hPa 0,0 l/m 0,3 km/h (0 Bft) S-SW 198 0 min 0,000 mm 0,0 UV-I 91 W/m -1,6 C -1,3 C 1,6 km/h (1 Bft) 96,94 %
06.02.2016 09:10 -1,3 C 98 % 1023,7 hPa 0,0 l/m 0,5 km/h (0 Bft) S-SW 198 0 min 0,000 mm 0,0 UV-I 67 W/m -1,6 C -1,3 C 3,2 km/h (1 Bft) 97,73 %
06.02.2016 09:15 -1,1 C 98 % 1023,7 hPa 0,0 l/m 0,6 km/h (0 Bft) S-SW 198 0 min 0,000 mm 0,0 UV-I 102 W/m -1,4 C -1,1 C 3,2 km/h (1 Bft) 99,13 %
06.02.2016 09:20 -1,1 C 98 % 1023,6 hPa 0,0 l/m 0,0 km/h (0 Bft) S-SW 198 0 min 0,000 mm 0,0 UV-I 111 W/m -1,4 C -1,1 C 0,0 km/h (0 Bft) 97,56 %
06.02.2016 09:25 -1,2 C 98 % 1023,6 hPa 0,0 l/m 0,0 km/h (0 Bft) S-SW 198 0 min 0,000 mm 0,0 UV-I 104 W/m -1,5 C -1,2 C 1,6 km/h (1 Bft) 98,17 %
06.02.2016 09:30 -1,1 C 98 % 1023,6 hPa 0,0 l/m 0,3 km/h (0 Bft) S-SW 198 0 min 0,000 mm 0,0 UV-I 113 W/m -1,4 C -1,1 C 1,6 km/h (1 Bft) 99,17 %
06.02.2016 09:35 -0,9 C 98 % 1023,6 hPa 0,0 l/m 0,2 km/h (0 Bft) S-SW 198 0 min 0,000 mm 0,0 UV-I 111 W/m -1,2 C -0,9 C 1,6 km/h (1 Bft) 100,00 %
06.02.2016 09:40 -0,9 C 98 % 1023,5 hPa 0,0 l/m 1,0 km/h (0 Bft) S-SW 198 0 min 0,000 mm 0,0 UV-I 123 W/m -1,2 C -0,9 C 3,2 km/h (1 Bft) 99,19 %
06.02.2016 09:45 -0,8 C 98 % 1023,5 hPa 0,0 l/m 1,0 km/h (0 Bft) S-SW 198 0 min 0,000 mm 0,0 UV-I 132 W/m -1,1 C -0,8 C 3,2 km/h (1 Bft) 99,15 %
06.02.2016 09:50 -0,8 C 98 % 1023,4 hPa 0,0 l/m 0,1 km/h (0 Bft) S-SW 198 0 min 0,000 mm 0,0 UV-I 133 W/m -1,1 C -0,8 C 1,6 km/h (1 Bft) 98,21 %
06.02.2016 09:55 -0,7 C 98 % 1023,4 hPa 0,0 l/m 0,0 km/h (0 Bft) S-SW 198 0 min 0,000 mm 0,0 UV-I 132 W/m -1,0 C -0,7 C 1,6 km/h (1 Bft) 100,00 %
06.02.2016 10:05 -0,4 C 98 % 1023,2 hPa 0,0 l/m 2,7 km/h (1 Bft) S-SW 198 10 min 0,026 mm 0,5 UV-I 189 W/m -0,7 C -0,4 C 4,8 km/h (1 Bft) 99,66 %
06.02.2016 10:10 -0,4 C 98 % 1023,3 hPa 0,0 l/m 1,0 km/h (0 Bft) S-SW 198 5 min 0,000 mm 0,6 UV-I 193 W/m -0,7 C -0,4 C 3,2 km/h (1 Bft) 100,00 %
06.02.2016 10:15 -0,5 C 98 % 1023,2 hPa 0,0 l/m 0,6 km/h (0 Bft) S-SW 198 0 min 0,000 mm 0,6 UV-I 195 W/m -0,8 C -0,5 C 3,2 km/h (1 Bft) 99,12 %
06.02.2016 10:20 -0,3 C 98 % 1023,2 hPa 0,0 l/m 1,8 km/h (1 Bft) S-SW 198 0 min 0,000 mm 0,6 UV-I 178 W/m -0,6 C -0,3 C 4,8 km/h (1 Bft) 99,19 %
06.02.2016 10:25 -0,1 C 98 % 1023,2 hPa 0,0 l/m 0,9 km/h (0 Bft) O-SO 110 5 min 0,000 mm 0,7 UV-I 209 W/m -0,4 C -0,1 C 4,8 km/h (1 Bft) 99,10 %
06.02.2016 10:30 -0,2 C 98 % 1023,3 hPa 0,0 l/m 0,2 km/h (0 Bft) O-SO 110 5 min 0,000 mm 0,7 UV-I 208 W/m -0,5 C -0,2 C 1,6 km/h (1 Bft) 99,19 %
06.02.2016 10:35 -0,1 C 98 % 1023,3 hPa 0,0 l/m 0,3 km/h (0 Bft) O-SO 110 0 min 0,000 mm 0,7 UV-I 203 W/m -0,4 C -0,1 C 1,6 km/h (1 Bft) 100,00 %
06.02.2016 10:40 0,1 C 98 % 1023,3 hPa 0,0 l/m 2,2 km/h (1 Bft) O-NO 60 0 min 0,000 mm 0,7 UV-I 208 W/m -0,2 C 0,1 C 4,8 km/h (1 Bft) 97,44 %
06.02.2016 10:45 0,2 C 98 % 1023,2 hPa 0,0 l/m 3,4 km/h (1 Bft) NO 52 0 min 0,000 mm 0,8 UV-I 206 W/m -0,1 C 0,2 C 6,4 km/h (2 Bft) 96,77 %
06.02.2016 10:50 0,4 C 98 % 1023,2 hPa 0,0 l/m 4,8 km/h (1 Bft) NO 45 0 min 0,000 mm 0,8 UV-I 188 W/m 0,1 C 0,4 C 6,4 km/h (2 Bft) 100,00 %
06.02.2016 10:55 0,6 C 98 % 1023,2 hPa 0,0 l/m 4,8 km/h (1 Bft) NO 45 0 min 0,000 mm 0,8 UV-I 200 W/m 0,3 C 0,6 C 9,7 km/h (2 Bft) 99,12 %
06.02.2016 11:00 0,6 C 98 % 1023,1 hPa 0,0 l/m 6,4 km/h (2 Bft) NO 45 0 min 0,076 mm 0,9 UV-I 223 W/m 0,3 C 0,6 C 8,0 km/h (2 Bft) 100,00 %
06.02.2016 11:05 0,9 C 98 % 1023,1 hPa 0,0 l/m 4,8 km/h (1 Bft) NO 45 0 min 0,000 mm 0,9 UV-I 222 W/m 0,6 C 0,9 C 8,0 km/h (2 Bft) 100,00 %
06.02.2016 11:10 0,9 C 98 % 1023,0 hPa 0,0 l/m 4,4 km/h (1 Bft) O-NO 59 5 min 0,000 mm 1,0 UV-I 266 W/m 0,6 C 0,9 C 6,4 km/h (2 Bft) 97,39 %
06.02.2016 11:15 1,1 C 98 % 1023,0 hPa 0,0 l/m 4,4 km/h (1 Bft) NO 47 5 min 0,000 mm 0,9 UV-I 252 W/m 0,8 C 1,1 C 6,4 km/h (2 Bft) 98,31 %
06.02.2016 11:20 1,3 C 98 % 1022,9 hPa 0,0 l/m 3,3 km/h (1 Bft) NO 55 5 min 0,000 mm 0,9 UV-I 266 W/m 1,0 C 1,3 C 4,8 km/h (1 Bft) 99,17 %
06.02.2016 11:25 1,6 C 98 % 1022,7 hPa 0,0 l/m 2,8 km/h (1 Bft) NO 55 5 min 0,000 mm 1,0 UV-I 290 W/m 1,3 C 1,6 C 6,4 km/h (2 Bft) 99,08 %
06.02.2016 11:30 1,7 C 98 % 1022,6 hPa 0,0 l/m 4,8 km/h (1 Bft) NO 45 5 min 0,000 mm 1,0 UV-I 255 W/m 1,4 C 1,7 C 8,0 km/h (2 Bft) 97,37 %
06.02.2016 11:35 2,3 C 99 % 1022,6 hPa 0,0 l/m 3,2 km/h (1 Bft) NO 45 5 min 0,000 mm 1,1 UV-I 337 W/m 2,2 C 2,3 C 6,4 km/h (2 Bft) 96,49 %
06.02.2016 11:40 2,4 C 99 % 1022,5 hPa 0,0 l/m 1,6 km/h (1 Bft) NO 45 5 min 0,000 mm 1,2 UV-I 527 W/m 2,3 C 2,4 C 4,8 km/h (1 Bft) 99,12 %
06.02.2016 11:45 2,4 C 99 % 1022,4 hPa 0,0 l/m 1,6 km/h (1 Bft) N-NO 22 5 min 0,000 mm 1,0 UV-I 260 W/m 2,3 C 2,4 C 6,4 km/h (2 Bft) 98,25 %
06.02.2016 11:50 2,3 C 98 % 1022,3 hPa 0,0 l/m 3,2 km/h (1 Bft) N-NO 22 5 min 0,000 mm 1,0 UV-I 253 W/m 2,0 C 2,3 C 4,8 km/h (1 Bft) 100,00 %
06.02.2016 11:55 2,4 C 99 % 1022,2 hPa 0,0 l/m 1,6 km/h (1 Bft) NO 45 5 min 0,000 mm 1,1 UV-I 305 W/m 2,3 C 2,4 C 6,4 km/h (2 Bft) 100,00 %
06.02.2016 12:00 2,5 C 99 % 1022,1 hPa 0,0 l/m 1,6 km/h (1 Bft) N-NO 22 5 min 0,102 mm 1,1 UV-I 254 W/m 2,4 C 2,5 C 6,4 km/h (2 Bft) 100,00 %
06.02.2016 12:05 2,6 C 98 % 1022,0 hPa 0,0 l/m 3,2 km/h (1 Bft) NO 45 0 min 0,000 mm 1,1 UV-I 242 W/m 2,3 C 2,6 C 6,4 km/h (2 Bft) 98,25 %
06.02.2016 12:10 2,8 C 99 % 1022,1 hPa 0,0 l/m 1,6 km/h (1 Bft) NO 45 5 min 0,000 mm 1,2 UV-I 358 W/m 2,7 C 2,8 C 3,2 km/h (1 Bft) 100,00 %
06.02.2016 12:15 2,9 C 99 % 1021,9 hPa 0,0 l/m 0,0 km/h (0 Bft) N-NO 22 5 min 0,000 mm 1,2 UV-I 377 W/m 2,8 C 2,9 C 1,6 km/h (1 Bft) 100,00 %
06.02.2016 12:20 3,1 C 98 % 1021,8 hPa 0,0 l/m 1,6 km/h (1 Bft) N-NW 337 5 min 0,000 mm 1,3 UV-I 367 W/m 2,8 C 3,1 C 3,2 km/h (1 Bft) 100,00 %
06.02.2016 12:25 3,2 C 98 % 1021,8 hPa 0,0 l/m 0,0 km/h (0 Bft) N-NW 337 5 min 0,000 mm 1,3 UV-I 376 W/m 2,9 C 3,2 C 1,6 km/h (1 Bft) 100,00 %
06.02.2016 12:30 3,4 C 99 % 1021,8 hPa 0,0 l/m 1,6 km/h (1 Bft) W-NW 292 5 min 0,000 mm 1,3 UV-I 374 W/m 3,3 C 3,4 C 4,8 km/h (1 Bft) 100,00 %
06.02.2016 12:35 3,5 C 98 % 1021,7 hPa 0,0 l/m 2,0 km/h (1 Bft) N-NO 18 5 min 0,000 mm 1,3 UV-I 373 W/m 3,2 C 3,5 C 4,8 km/h (1 Bft) 94,92 %
06.02.2016 12:40 3,7 C 98 % 1021,6 hPa 0,0 l/m 3,0 km/h (1 Bft) N-NO 24 5 min 0,000 mm 1,3 UV-I 380 W/m 3,4 C 3,7 C 6,4 km/h (2 Bft) 97,58 %
06.02.2016 12:45 4,0 C 98 % 1021,6 hPa 0,0 l/m 3,4 km/h (1 Bft) N-NO 22 5 min 0,000 mm 1,3 UV-I 374 W/m 3,7 C 4,0 C 6,4 km/h (2 Bft) 97,39 %
06.02.2016 12:50 4,2 C 97 % 1021,5 hPa 0,0 l/m 2,7 km/h (1 Bft) N-NO 20 5 min 0,000 mm 1,3 UV-I 347 W/m 3,8 C 4,2 C 6,4 km/h (2 Bft) 96,75 %
06.02.2016 12:55 4,2 C 97 % 1021,4 hPa 0,0 l/m 3,3 km/h (1 Bft) N-NO 19 5 min 0,000 mm 1,2 UV-I 356 W/m 3,8 C 4,2 C 8,0 km/h (2 Bft) 95,41 %
06.02.2016 13:00 4,2 C 96 % 1021,3 hPa 0,0 l/m 3,0 km/h (1 Bft) N-NO 23 5 min 0,127 mm 1,2 UV-I 347 W/m 3,6 C 4,2 C 6,4 km/h (2 Bft) 99,19 %
06.02.2016 13:05 4,4 C 96 % 1021,2 hPa 0,0 l/m 2,2 km/h (1 Bft) NO 46 5 min 0,000 mm 1,1 UV-I 313 W/m 3,8 C 4,4 C 4,8 km/h (1 Bft) 99,15 %
06.02.2016 13:10 4,7 C 96 % 1021,1 hPa 0,0 l/m 1,0 km/h (0 Bft) N 360 5 min 0,000 mm 1,1 UV-I 326 W/m 4,1 C 4,7 C 3,2 km/h (1 Bft) 100,00 %
06.02.2016 13:15 4,8 C 96 % 1021,0 hPa 0,0 l/m 0,7 km/h (0 Bft) NW 322 5 min 0,000 mm 1,1 UV-I 334 W/m 4,2 C 4,8 C 3,2 km/h (1 Bft) 100,00 %
06.02.2016 13:20 4,8 C 95 % 1020,9 hPa 0,0 l/m 0,5 km/h (0 Bft) N-NW 348 5 min 0,000 mm 1,2 UV-I 358 W/m 4,1 C 4,8 C 3,2 km/h (1 Bft) 100,00 %
06.02.2016 13:25 5,0 C 95 % 1020,8 hPa 0,0 l/m 2,4 km/h (1 Bft) N-NO 17 5 min 0,000 mm 1,1 UV-I 340 W/m 4,3 C 5,0 C 6,4 km/h (2 Bft) 100,00 %
06.02.2016 13:30 5,3 C 94 % 1020,8 hPa 0,0 l/m 2,6 km/h (1 Bft) N-NO 20 5 min 0,000 mm 1,1 UV-I 342 W/m 4,4 C 5,3 C 4,8 km/h (1 Bft) 100,00 %
06.02.2016 13:35 5,4 C 92 % 1020,7 hPa 0,0 l/m 0,9 km/h (0 Bft) N-NO 12 5 min 0,000 mm 1,1 UV-I 356 W/m 4,2 C 5,4 C 3,2 km/h (1 Bft) 99,18 %
06.02.2016 13:40 5,7 C 91 % 1020,6 hPa 0,0 l/m 0,9 km/h (0 Bft) N-NO 12 5 min 0,000 mm 1,1 UV-I 357 W/m 4,3 C 5,7 C 3,2 km/h (1 Bft) 99,11 %
06.02.2016 13:45 5,7 C 89 % 1020,6 hPa 0,0 l/m 0,7 km/h (0 Bft) N-NO 12 5 min 0,000 mm 1,1 UV-I 370 W/m 4,0 C 5,7 C 3,2 km/h (1 Bft) 100,00 %
06.02.2016 13:50 5,8 C 89 % 1020,5 hPa 0,0 l/m 2,0 km/h (1 Bft) N-NO 15 5 min 0,000 mm 1,0 UV-I 353 W/m 4,1 C 5,8 C 4,8 km/h (1 Bft) 100,00 %
06.02.2016 13:55 6,0 C 88 % 1020,5 hPa 0,0 l/m 1,9 km/h (1 Bft) N-NO 15 5 min 0,000 mm 1,0 UV-I 358 W/m 4,2 C 6,0 C 4,8 km/h (1 Bft) 99,11 %
06.02.2016 14:00 6,3 C 88 % 1020,3 hPa 0,0 l/m 2,6 km/h (1 Bft) N-NO 30 5 min 0,127 mm 1,0 UV-I 343 W/m 4,5 C 6,3 C 4,8 km/h (1 Bft) 100,00 %
06.02.2016 14:05 6,4 C 85 % 1020,2 hPa 0,0 l/m 3,1 km/h (1 Bft) NO 53 5 min 0,000 mm 0,9 UV-I 325 W/m 4,1 C 6,4 C 6,4 km/h (2 Bft) 100,00 %
06.02.2016 14:10 6,6 C 87 % 1020,1 hPa 0,0 l/m 2,4 km/h (1 Bft) NO 34 5 min 0,000 mm 0,9 UV-I 311 W/m 4,6 C 6,6 C 4,8 km/h (1 Bft) 97,56 %
06.02.2016 14:15 6,5 C 84 % 1020,0 hPa 0,0 l/m 1,7 km/h (1 Bft) NO 35 5 min 0,000 mm 0,9 UV-I 323 W/m 4,0 C 6,5 C 4,8 km/h (1 Bft) 97,32 %
06.02.2016 14:20 6,5 C 86 % 1019,9 hPa 0,0 l/m 1,4 km/h (1 Bft) NO 35 5 min 0,000 mm 0,8 UV-I 317 W/m 4,3 C 6,5 C 3,2 km/h (1 Bft) 97,46 %
06.02.2016 14:25 6,6 C 86 % 1019,8 hPa 0,0 l/m 0,2 km/h (0 Bft) NO 35 5 min 0,000 mm 0,8 UV-I 277 W/m 4,4 C 6,6 C 1,6 km/h (1 Bft) 97,62 %
06.02.2016 14:30 6,6 C 86 % 1019,8 hPa 0,0 l/m 0,4 km/h (0 Bft) NO 34 5 min 0,000 mm 0,7 UV-I 258 W/m 4,4 C 6,6 C 3,2 km/h (1 Bft) 97,39 %
06.02.2016 14:35 6,6 C 86 % 1019,7 hPa 0,0 l/m 0,1 km/h (0 Bft) NO 34 5 min 0,000 mm 0,7 UV-I 259 W/m 4,4 C 6,6 C 1,6 km/h (1 Bft) 100,00 %
06.02.2016 14:45 7,0 C 85 % 1019,6 hPa 0,0 l/m 2,3 km/h (1 Bft) O-NO 75 10 min 0,000 mm 0,6 UV-I 275 W/m 4,7 C 7,0 C 4,8 km/h (1 Bft) 98,64 %
06.02.2016 14:50 7,2 C 86 % 1019,4 hPa 0,0 l/m 3,1 km/h (1 Bft) O-NO 74 5 min 0,000 mm 0,6 UV-I 268 W/m 5,0 C 7,2 C 6,4 km/h (2 Bft) 99,15 %
06.02.2016 14:55 7,4 C 85 % 1019,4 hPa 0,0 l/m 4,1 km/h (1 Bft) NO 40 5 min 0,000 mm 0,5 UV-I 234 W/m 5,0 C 7,4 C 8,0 km/h (2 Bft) 100,00 %
06.02.2016 15:00 7,4 C 83 % 1019,4 hPa 0,0 l/m 3,9 km/h (1 Bft) NO 48 5 min 0,127 mm 0,5 UV-I 256 W/m 4,7 C 7,4 C 6,4 km/h (2 Bft) 100,00 %
06.02.2016 15:05 7,5 C 84 % 1019,2 hPa 0,0 l/m 3,2 km/h (1 Bft) NO 49 5 min 0,000 mm 0,5 UV-I 245 W/m 5,0 C 7,5 C 4,8 km/h (1 Bft) 100,00 %
06.02.2016 15:10 7,8 C 85 % 1019,2 hPa 0,0 l/m 3,0 km/h (1 Bft) N-NO 30 5 min 0,000 mm 0,5 UV-I 228 W/m 5,4 C 7,8 C 6,4 km/h (2 Bft) 99,15 %
06.02.2016 15:15 7,7 C 84 % 1019,2 hPa 0,0 l/m 2,1 km/h (1 Bft) NO 53 5 min 0,000 mm 0,0 UV-I 214 W/m 5,2 C 7,7 C 9,7 km/h (2 Bft) 100,00 %
06.02.2016 15:20 7,8 C 81 % 1019,1 hPa 0,0 l/m 4,0 km/h (1 Bft) NO 42 5 min 0,000 mm 0,0 UV-I 190 W/m 4,7 C 7,8 C 8,0 km/h (2 Bft) 100,00 %
06.02.2016 15:25 7,7 C 83 % 1019,0 hPa 0,0 l/m 4,9 km/h (1 Bft) N-NO 17 5 min 0,000 mm 0,0 UV-I 174 W/m 5,0 C 7,7 C 8,0 km/h (2 Bft) 99,11 %
06.02.2016 15:30 7,7 C 84 % 1019,0 hPa 0,0 l/m 4,6 km/h (1 Bft) N-NO 28 5 min 0,000 mm 0,0 UV-I 157 W/m 5,2 C 7,7 C 8,0 km/h (2 Bft) 100,00 %
06.02.2016 15:35 7,6 C 84 % 1018,9 hPa 0,0 l/m 6,2 km/h (2 Bft) N-NO 33 5 min 0,000 mm 0,0 UV-I 138 W/m 5,1 C 7,6 C 11,3 km/h (2 Bft) 99,17 %
06.02.2016 15:40 7,7 C 80 % 1018,9 hPa 0,0 l/m 5,7 km/h (1 Bft) O-NO 67 5 min 0,000 mm 0,0 UV-I 136 W/m 4,5 C 7,7 C 9,7 km/h (2 Bft) 97,44 %
06.02.2016 15:45 7,5 C 81 % 1018,8 hPa 0,0 l/m 7,4 km/h (2 Bft) NO 55 5 min 0,000 mm 0,0 UV-I 121 W/m 4,5 C 6,7 C 11,3 km/h (2 Bft) 99,13 %
06.02.2016 15:50 7,3 C 83 % 1018,7 hPa 0,0 l/m 6,6 km/h (2 Bft) O-NO 73 5 min 0,000 mm 0,0 UV-I 106 W/m 4,6 C 7,2 C 11,3 km/h (2 Bft) 99,15 %
06.02.2016 15:55 7,3 C 83 % 1018,6 hPa 0,0 l/m 7,1 km/h (2 Bft) O-NO 57 5 min 0,000 mm 0,0 UV-I 104 W/m 4,6 C 6,7 C 11,3 km/h (2 Bft) 96,67 %
06.02.2016 16:00 7,2 C 81 % 1018,6 hPa 0,0 l/m 7,6 km/h (2 Bft) NO 45 0 min 0,076 mm 0,0 UV-I 90 W/m 4,2 C 6,2 C 12,9 km/h (3 Bft) 95,87 %
06.02.2016 16:05 7,1 C 82 % 1018,5 hPa 0,0 l/m 7,9 km/h (2 Bft) O-NO 63 0 min 0,000 mm 0,0 UV-I 84 W/m 4,2 C 5,9 C 12,9 km/h (3 Bft) 96,52 %
06.02.2016 16:10 7,1 C 83 % 1018,4 hPa 0,0 l/m 7,5 km/h (2 Bft) O-NO 70 0 min 0,000 mm 0,0 UV-I 69 W/m 4,4 C 6,2 C 12,9 km/h (3 Bft) 97,30 %
06.02.2016 16:15 6,9 C 83 % 1018,4 hPa 0,0 l/m 7,2 km/h (2 Bft) NO 51 0 min 0,000 mm 0,0 UV-I 60 W/m 4,2 C 6,2 C 9,7 km/h (2 Bft) 95,04 %
06.02.2016 16:20 6,9 C 83 % 1018,3 hPa 0,0 l/m 7,2 km/h (2 Bft) NO 49 0 min 0,000 mm 0,0 UV-I 53 W/m 4,2 C 6,2 C 9,7 km/h (2 Bft) 98,26 %
06.02.2016 16:25 6,8 C 84 % 1018,2 hPa 0,0 l/m 6,9 km/h (2 Bft) NO 53 0 min 0,000 mm 0,0 UV-I 47 W/m 4,3 C 6,4 C 9,7 km/h (2 Bft) 99,15 %
06.02.2016 16:30 6,7 C 85 % 1018,2 hPa 0,0 l/m 5,6 km/h (1 Bft) NO 54 0 min 0,000 mm 0,0 UV-I 41 W/m 4,4 C 6,7 C 8,0 km/h (2 Bft) 98,31 %
06.02.2016 16:35 6,5 C 86 % 1018,1 hPa 0,0 l/m 4,7 km/h (1 Bft) NO 55 0 min 0,000 mm 0,0 UV-I 37 W/m 4,3 C 6,5 C 6,4 km/h (2 Bft) 99,17 %
06.02.2016 16:40 6,4 C 87 % 1018,0 hPa 0,0 l/m 4,6 km/h (1 Bft) O-NO 60 0 min 0,000 mm 0,0 UV-I 33 W/m 4,4 C 6,4 C 8,0 km/h (2 Bft) 100,00 %
06.02.2016 16:45 6,2 C 88 % 1017,9 hPa 0,0 l/m 5,0 km/h (1 Bft) NO 51 0 min 0,000 mm 0,0 UV-I 28 W/m 4,4 C 6,2 C 8,0 km/h (2 Bft) 100,00 %
06.02.2016 16:50 6,2 C 88 % 1017,8 hPa 0,0 l/m 5,5 km/h (1 Bft) NO 55 0 min 0,000 mm 0,0 UV-I 21 W/m 4,4 C 6,2 C 8,0 km/h (2 Bft) 100,00 %
06.02.2016 16:55 6,1 C 88 % 1017,8 hPa 0,0 l/m 3,7 km/h (1 Bft) O-NO 59 5 min 0,000 mm 0,0 UV-I 16 W/m 4,3 C 6,1 C 6,4 km/h (2 Bft) 99,08 %
06.02.2016 17:00 5,9 C 89 % 1017,8 hPa 0,0 l/m 3,2 km/h (1 Bft) O-NO 57 0 min 0,025 mm 0,0 UV-I 13 W/m 4,2 C 5,9 C 4,8 km/h (1 Bft) 99,23 %
06.02.2016 17:05 5,8 C 89 % 1017,7 hPa 0,0 l/m 3,1 km/h (1 Bft) O-NO 57 0 min 0,000 mm 0,0 UV-I 9 W/m 4,1 C 5,8 C 4,8 km/h (1 Bft) 100,00 %
06.02.2016 17:10 5,4 C 90 % 1017,7 hPa 0,0 l/m 2,5 km/h (1 Bft) O-NO 57 0 min 0,000 mm 0,0 UV-I 6 W/m 3,9 C 5,4 C 4,8 km/h (1 Bft) 100,00 %
06.02.2016 17:15 5,3 C 91 % 1017,6 hPa 0,0 l/m 3,1 km/h (1 Bft) O-NO 57 0 min 0,000 mm 0,0 UV-I 3 W/m 4,0 C 5,3 C 4,8 km/h (1 Bft) 100,00 %
06.02.2016 17:20 5,3 C 91 % 1017,6 hPa 0,0 l/m 3,0 km/h (1 Bft) O-NO 57 0 min 0,000 mm 0,0 UV-I 0 W/m 4,0 C 5,3 C 4,8 km/h (1 Bft) 98,17 %
06.02.2016 17:25 5,0 C 91 % 1017,5 hPa 0,0 l/m 2,3 km/h (1 Bft) O-NO 57 0 min 0,000 mm 0,0 UV-I 0 W/m 3,7 C 5,0 C 4,8 km/h (1 Bft) 98,35 %
06.02.2016 17:30 5,1 C 92 % 1017,4 hPa 0,0 l/m 1,9 km/h (1 Bft) O-NO 57 0 min 0,000 mm 0,0 UV-I 0 W/m 3,9 C 5,1 C 3,2 km/h (1 Bft) 99,03 %
06.02.2016 17:35 5,2 C 91 % 1017,3 hPa 0,0 l/m 2,7 km/h (1 Bft) O-NO 57 0 min 0,000 mm 0,0 UV-I 0 W/m 3,9 C 5,2 C 4,8 km/h (1 Bft) 100,00 %
06.02.2016 17:40 5,2 C 91 % 1017,2 hPa 0,0 l/m 4,4 km/h (1 Bft) NO 34 0 min 0,000 mm 0,0 UV-I 0 W/m 3,9 C 5,2 C 6,4 km/h (2 Bft) 98,21 %
06.02.2016 17:45 5,0 C 91 % 1017,1 hPa 0,0 l/m 4,1 km/h (1 Bft) N-NO 28 0 min 0,000 mm 0,0 UV-I 0 W/m 3,7 C 5,0 C 6,4 km/h (2 Bft) 100,00 %
06.02.2016 17:50 4,8 C 92 % 1016,9 hPa 0,0 l/m 4,0 km/h (1 Bft) N-NO 28 0 min 0,000 mm 0,0 UV-I 0 W/m 3,6 C 4,8 C 6,4 km/h (2 Bft) 100,00 %
06.02.2016 17:55 4,8 C 92 % 1016,9 hPa 0,0 l/m 4,3 km/h (1 Bft) NO 44 0 min 0,000 mm 0,0 UV-I 0 W/m 3,6 C 4,8 C 8,0 km/h (2 Bft) 99,12 %
06.02.2016 18:00 4,8 C 92 % 1016,8 hPa 0,0 l/m 4,7 km/h (1 Bft) N-NO 32 0 min 0,000 mm 0,0 UV-I 0 W/m 3,6 C 4,8 C 8,0 km/h (2 Bft) 97,52 %
06.02.2016 18:05 4,6 C 92 % 1016,7 hPa 0,0 l/m 5,6 km/h (1 Bft) NO 45 0 min 0,000 mm 0,0 UV-I 0 W/m 3,4 C 4,6 C 8,0 km/h (2 Bft) 96,61 %
06.02.2016 18:10 4,6 C 93 % 1016,6 hPa 0,0 l/m 4,9 km/h (1 Bft) O-NO 76 0 min 0,000 mm 0,0 UV-I 0 W/m 3,6 C 4,6 C 8,0 km/h (2 Bft) 97,30 %
06.02.2016 18:15 4,7 C 93 % 1016,5 hPa 0,0 l/m 5,7 km/h (1 Bft) NO 56 0 min 0,000 mm 0,0 UV-I 0 W/m 3,7 C 4,7 C 8,0 km/h (2 Bft) 96,77 %
06.02.2016 18:20 4,6 C 92 % 1016,5 hPa 0,0 l/m 5,8 km/h (2 Bft) N-NO 20 0 min 0,000 mm 0,0 UV-I 0 W/m 3,4 C 4,6 C 8,0 km/h (2 Bft) 98,18 %
06.02.2016 18:25 4,4 C 92 % 1016,5 hPa 0,0 l/m 2,8 km/h (1 Bft) N-NO 24 0 min 0,000 mm 0,0 UV-I 0 W/m 3,2 C 4,4 C 4,8 km/h (1 Bft) 97,30 %
06.02.2016 18:30 4,3 C 92 % 1016,5 hPa 0,0 l/m 2,9 km/h (1 Bft) N-NO 24 0 min 0,000 mm 0,0 UV-I 0 W/m 3,1 C 4,3 C 4,8 km/h (1 Bft) 97,64 %
06.02.2016 18:35 4,3 C 92 % 1016,4 hPa 0,0 l/m 4,1 km/h (1 Bft) N-NO 29 0 min 0,000 mm 0,0 UV-I 0 W/m 3,1 C 4,3 C 6,4 km/h (2 Bft) 99,10 %
06.02.2016 18:40 4,3 C 92 % 1016,3 hPa 0,0 l/m 4,4 km/h (1 Bft) N-NO 26 0 min 0,000 mm 0,0 UV-I 0 W/m 3,1 C 4,3 C 6,4 km/h (2 Bft) 98,31 %
06.02.2016 18:45 4,3 C 92 % 1016,2 hPa 0,0 l/m 1,1 km/h (1 Bft) N-NO 26 0 min 0,000 mm 0,0 UV-I 0 W/m 3,1 C 4,3 C 4,8 km/h (1 Bft) 99,13 %
06.02.2016 18:50 4,3 C 91 % 1016,1 hPa 0,0 l/m 3,4 km/h (1 Bft) N-NO 19 0 min 0,000 mm 0,0 UV-I 0 W/m 3,0 C 4,3 C 11,3 km/h (2 Bft) 99,17 %
06.02.2016 18:55 4,3 C 91 % 1016,1 hPa 0,0 l/m 6,2 km/h (2 Bft) NO 42 0 min 0,000 mm 0,0 UV-I 0 W/m 3,0 C 4,3 C 11,3 km/h (2 Bft) 99,13 %
06.02.2016 19:00 4,4 C 91 % 1016,1 hPa 0,0 l/m 3,3 km/h (1 Bft) NO 50 0 min 0,000 mm 0,0 UV-I 0 W/m 3,1 C 4,4 C 4,8 km/h (1 Bft) 100,00 %
06.02.2016 19:05 4,3 C 91 % 1015,9 hPa 0,0 l/m 4,3 km/h (1 Bft) NO 41 0 min 0,000 mm 0,0 UV-I 0 W/m 3,0 C 4,3 C 6,4 km/h (2 Bft) 99,17 %
06.02.2016 19:10 4,3 C 91 % 1015,9 hPa 0,0 l/m 4,4 km/h (1 Bft) N-NO 26 0 min 0,000 mm 0,0 UV-I 0 W/m 3,0 C 4,3 C 8,0 km/h (2 Bft) 100,00 %
06.02.2016 19:15 4,3 C 91 % 1015,8 hPa 0,0 l/m 5,2 km/h (1 Bft) NO 38 0 min 0,000 mm 0,0 UV-I 0 W/m 3,0 C 4,3 C 6,4 km/h (2 Bft) 96,67 %
06.02.2016 19:20 4,2 C 91 % 1015,8 hPa 0,0 l/m 4,8 km/h (1 Bft) NO 45 0 min 0,000 mm 0,0 UV-I 0 W/m 2,9 C 4,2 C 6,4 km/h (2 Bft) 100,00 %
06.02.2016 19:25 4,2 C 91 % 1015,7 hPa 0,0 l/m 4,8 km/h (1 Bft) NO 45 0 min 0,000 mm 0,0 UV-I 0 W/m 2,9 C 4,2 C 8,0 km/h (2 Bft) 100,00 %
06.02.2016 19:30 3,8 C 90 % 1015,7 hPa 0,0 l/m 3,2 km/h (1 Bft) NO 45 0 min 0,000 mm 0,0 UV-I 0 W/m 2,3 C 3,8 C 4,8 km/h (1 Bft) 100,00 %
06.02.2016 19:35 3,3 C 92 % 1015,6 hPa 0,0 l/m 2,7 km/h (1 Bft) O-NO 69 0 min 0,000 mm 0,0 UV-I 0 W/m 2,1 C 3,3 C 4,8 km/h (1 Bft) 99,78 %
06.02.2016 19:40 3,1 C 94 % 1015,6 hPa 0,0 l/m 3,1 km/h (1 Bft) O-NO 67 0 min 0,000 mm 0,0 UV-I 0 W/m 2,2 C 3,1 C 4,8 km/h (1 Bft) 99,17 %
06.02.2016 19:45 3,3 C 95 % 1015,6 hPa 0,0 l/m 1,4 km/h (1 Bft) O-NO 67 0 min 0,000 mm 0,0 UV-I 0 W/m 2,6 C 3,3 C 4,8 km/h (1 Bft) 100,00 %
06.02.2016 19:50 2,7 C 93 % 1015,5 hPa 0,0 l/m 3,1 km/h (1 Bft) SW 231 0 min 0,000 mm 0,0 UV-I 0 W/m 1,7 C 2,7 C 4,8 km/h (1 Bft) 99,12 %
06.02.2016 19:55 2,4 C 94 % 1015,4 hPa 0,0 l/m 2,4 km/h (1 Bft) SW 230 0 min 0,000 mm 0,0 UV-I 0 W/m 1,5 C 2,4 C 4,8 km/h (1 Bft) 100,00 %
06.02.2016 20:00 2,7 C 95 % 1015,4 hPa 0,0 l/m 1,0 km/h (0 Bft) SW 230 0 min 0,000 mm 0,0 UV-I 0 W/m 2,0 C 2,7 C 3,2 km/h (1 Bft) 100,00 %
06.02.2016 20:05 2,4 C 95 % 1015,3 hPa 0,0 l/m 2,3 km/h (1 Bft) SW 230 0 min 0,000 mm 0,0 UV-I 0 W/m 1,7 C 2,4 C 3,2 km/h (1 Bft) 99,15 %
06.02.2016 20:10 2,3 C 95 % 1015,3 hPa 0,0 l/m 3,7 km/h (1 Bft) SW 214 0 min 0,000 mm 0,0 UV-I 0 W/m 1,6 C 2,3 C 6,4 km/h (2 Bft) 99,13 %
06.02.2016 20:15 2,1 C 95 % 1015,3 hPa 0,0 l/m 3,9 km/h (1 Bft) S 184 0 min 0,000 mm 0,0 UV-I 0 W/m 1,4 C 2,1 C 6,4 km/h (2 Bft) 96,67 %
06.02.2016 20:20 2,1 C 95 % 1015,2 hPa 0,0 l/m 1,8 km/h (1 Bft) S 175 0 min 0,000 mm 0,0 UV-I 0 W/m 1,4 C 2,1 C 4,8 km/h (1 Bft) 96,77 %
06.02.2016 20:25 2,7 C 97 % 1015,1 hPa 0,0 l/m 1,1 km/h (1 Bft) S 174 0 min 0,000 mm 0,0 UV-I 0 W/m 2,3 C 2,7 C 3,2 km/h (1 Bft) 96,61 %
06.02.2016 20:30 3,1 C 96 % 1015,0 hPa 0,0 l/m 1,3 km/h (1 Bft) O-NO 68 0 min 0,000 mm 0,0 UV-I 0 W/m 2,5 C 3,1 C 4,8 km/h (1 Bft) 96,30 %
06.02.2016 20:35 3,1 C 95 % 1014,9 hPa 0,0 l/m 1,9 km/h (1 Bft) O-NO 68 0 min 0,000 mm 0,0 UV-I 0 W/m 2,4 C 3,1 C 3,2 km/h (1 Bft) 97,46 %
06.02.2016 20:40 3,4 C 96 % 1014,9 hPa 0,0 l/m 2,3 km/h (1 Bft) O-NO 68 0 min 0,000 mm 0,0 UV-I 0 W/m 2,8 C 3,4 C 4,8 km/h (1 Bft) 98,37 %
06.02.2016 20:45 2,6 C 92 % 1014,9 hPa 0,0 l/m 3,5 km/h (1 Bft) S-SW 203 0 min 0,000 mm 0,0 UV-I 0 W/m 1,4 C 2,6 C 8,0 km/h (2 Bft) 97,32 %
06.02.2016 20:50 1,8 C 94 % 1014,8 hPa 0,0 l/m 3,6 km/h (1 Bft) S 188 0 min 0,000 mm 0,0 UV-I 0 W/m 0,9 C 1,8 C 8,0 km/h (2 Bft) 97,39 %
06.02.2016 20:55 2,1 C 96 % 1014,8 hPa 0,0 l/m 2,0 km/h (1 Bft) S-SO 155 0 min 0,000 mm 0,0 UV-I 0 W/m 1,5 C 2,1 C 3,2 km/h (1 Bft) 98,41 %
06.02.2016 21:00 3,0 C 97 % 1014,6 hPa 0,0 l/m 2,4 km/h (1 Bft) S-SO 155 0 min 0,000 mm 0,0 UV-I 0 W/m 2,6 C 3,0 C 3,2 km/h (1 Bft) 98,21 %
06.02.2016 21:05 3,2 C 97 % 1014,5 hPa 0,0 l/m 2,8 km/h (1 Bft) S-SO 155 0 min 0,000 mm 0,0 UV-I 0 W/m 2,8 C 3,2 C 3,2 km/h (1 Bft) 99,13 %
06.02.2016 21:10 3,2 C 96 % 1014,4 hPa 0,0 l/m 2,7 km/h (1 Bft) S-SO 151 0 min 0,000 mm 0,0 UV-I 0 W/m 2,6 C 3,2 C 4,8 km/h (1 Bft) 99,19 %
06.02.2016 21:15 2,2 C 93 % 1014,4 hPa 0,0 l/m 2,0 km/h (1 Bft) S-SO 151 0 min 0,000 mm 0,0 UV-I 0 W/m 1,2 C 2,2 C 4,8 km/h (1 Bft) 100,00 %
06.02.2016 21:20 1,5 C 94 % 1014,4 hPa 0,0 l/m 3,5 km/h (1 Bft) S 184 0 min 0,000 mm 0,0 UV-I 0 W/m 0,6 C 1,5 C 6,4 km/h (2 Bft) 100,00 %
06.02.2016 21:25 1,2 C 95 % 1014,4 hPa 0,0 l/m 3,8 km/h (1 Bft) S-SW 212 0 min 0,000 mm 0,0 UV-I 0 W/m 0,5 C 1,2 C 6,4 km/h (2 Bft) 99,11 %
06.02.2016 21:30 1,2 C 96 % 1014,5 hPa 0,0 l/m 4,8 km/h (1 Bft) SW 216 0 min 0,000 mm 0,0 UV-I 0 W/m 0,6 C 1,2 C 6,4 km/h (2 Bft) 99,11 %
06.02.2016 21:35 0,8 C 96 % 1014,3 hPa 0,0 l/m 1,2 km/h (1 Bft) SW 216 0 min 0,000 mm 0,0 UV-I 0 W/m 0,2 C 0,8 C 3,2 km/h (1 Bft) 100,00 %
06.02.2016 21:40 0,9 C 96 % 1014,3 hPa 0,0 l/m 3,2 km/h (1 Bft) SW 216 0 min 0,000 mm 0,0 UV-I 0 W/m 0,3 C 0,9 C 4,8 km/h (1 Bft) 98,26 %
06.02.2016 21:45 1,2 C 97 % 1014,2 hPa 0,0 l/m 2,1 km/h (1 Bft) SW 216 0 min 0,000 mm 0,0 UV-I 0 W/m 0,8 C 1,2 C 4,8 km/h (1 Bft) 99,17 %
06.02.2016 21:50 1,1 C 96 % 1014,1 hPa 0,0 l/m 0,5 km/h (0 Bft) SW 216 0 min 0,000 mm 0,0 UV-I 0 W/m 0,5 C 1,1 C 1,6 km/h (1 Bft) 98,25 %
06.02.2016 21:55 1,4 C 97 % 1014,1 hPa 0,0 l/m 1,1 km/h (1 Bft) SW 216 0 min 0,000 mm 0,0 UV-I 0 W/m 1,0 C 1,4 C 4,8 km/h (1 Bft) 100,00 %
06.02.2016 22:00 1,2 C 97 % 1014,0 hPa 0,0 l/m 2,1 km/h (1 Bft) SW 216 0 min 0,000 mm 0,0 UV-I 0 W/m 0,8 C 1,2 C 3,2 km/h (1 Bft) 100,00 %
06.02.2016 22:05 1,1 C 97 % 1013,8 hPa 0,0 l/m 2,4 km/h (1 Bft) SW 215 0 min 0,000 mm 0,0 UV-I 0 W/m 0,7 C 1,1 C 3,2 km/h (1 Bft) 98,29 %
06.02.2016 22:10 1,3 C 97 % 1013,7 hPa 0,0 l/m 2,7 km/h (1 Bft) O 96 0 min 0,000 mm 0,0 UV-I 0 W/m 0,9 C 1,3 C 4,8 km/h (1 Bft) 100,00 %
06.02.2016 22:15 1,0 C 97 % 1013,8 hPa 0,0 l/m 1,8 km/h (1 Bft) S 176 0 min 0,000 mm 0,0 UV-I 0 W/m 0,6 C 1,0 C 4,8 km/h (1 Bft) 98,33 %
06.02.2016 22:20 0,8 C 97 % 1013,7 hPa 0,0 l/m 2,2 km/h (1 Bft) S 176 0 min 0,000 mm 0,0 UV-I 0 W/m 0,4 C 0,8 C 4,8 km/h (1 Bft) 99,15 %
06.02.2016 22:25 0,7 C 97 % 1013,6 hPa 0,0 l/m 1,9 km/h (1 Bft) S 175 0 min 0,000 mm 0,0 UV-I 0 W/m 0,3 C 0,7 C 6,4 km/h (2 Bft) 100,00 %
06.02.2016 22:30 0,6 C 97 % 1013,6 hPa 0,0 l/m 1,5 km/h (1 Bft) S 173 0 min 0,000 mm 0,0 UV-I 0 W/m 0,2 C 0,6 C 4,8 km/h (1 Bft) 100,00 %
06.02.2016 22:35 0,7 C 97 % 1013,6 hPa 0,0 l/m 1,8 km/h (1 Bft) S 173 0 min 0,000 mm 0,0 UV-I 0 W/m 0,3 C 0,7 C 4,8 km/h (1 Bft) 100,00 %
06.02.2016 22:40 0,5 C 97 % 1013,6 hPa 0,0 l/m 1,9 km/h (1 Bft) S 173 0 min 0,000 mm 0,0 UV-I 0 W/m 0,1 C 0,5 C 4,8 km/h (1 Bft) 99,13 %
06.02.2016 22:45 0,4 C 97 % 1013,6 hPa 0,0 l/m 3,8 km/h (1 Bft) S 188 0 min 0,000 mm 0,0 UV-I 0 W/m -0,0 C 0,4 C 4,8 km/h (1 Bft) 96,67 %
06.02.2016 22:50 0,5 C 97 % 1013,4 hPa 0,0 l/m 3,3 km/h (1 Bft) SW 215 0 min 0,000 mm 0,0 UV-I 0 W/m 0,1 C 0,5 C 6,4 km/h (2 Bft) 96,69 %
06.02.2016 22:55 0,5 C 97 % 1013,5 hPa 0,0 l/m 3,8 km/h (1 Bft) SW 215 0 min 0,000 mm 0,0 UV-I 0 W/m 0,1 C 0,5 C 4,8 km/h (1 Bft) 97,30 %
06.02.2016 23:00 0,6 C 97 % 1013,3 hPa 0,0 l/m 2,6 km/h (1 Bft) SW 215 0 min 0,000 mm 0,0 UV-I 0 W/m 0,2 C 0,6 C 4,8 km/h (1 Bft) 98,26 %
06.02.2016 23:05 0,9 C 98 % 1013,3 hPa 0,0 l/m 0,3 km/h (0 Bft) SW 215 0 min 0,000 mm 0,0 UV-I 0 W/m 0,6 C 0,9 C 3,2 km/h (1 Bft) 97,58 %
06.02.2016 23:10 1,1 C 98 % 1013,1 hPa 0,0 l/m 2,5 km/h (1 Bft) SW 215 0 min 0,000 mm 0,0 UV-I 0 W/m 0,8 C 1,1 C 4,8 km/h (1 Bft) 97,44 %
06.02.2016 23:15 1,6 C 98 % 1013,0 hPa 0,0 l/m 3,0 km/h (1 Bft) SW 215 0 min 0,000 mm 0,0 UV-I 0 W/m 1,3 C 1,6 C 4,8 km/h (1 Bft) 95,54 %
06.02.2016 23:20 1,6 C 98 % 1012,9 hPa 0,0 l/m 3,0 km/h (1 Bft) SW 215 0 min 0,000 mm 0,0 UV-I 0 W/m 1,3 C 1,6 C 4,8 km/h (1 Bft) 97,25 %
06.02.2016 23:25 1,4 C 98 % 1012,8 hPa 0,0 l/m 1,3 km/h (1 Bft) SW 215 0 min 0,000 mm 0,0 UV-I 0 W/m 1,1 C 1,4 C 3,2 km/h (1 Bft) 95,35 %
06.02.2016 23:30 1,4 C 98 % 1012,8 hPa 0,0 l/m 1,6 km/h (1 Bft) SW 215 0 min 0,000 mm 0,0 UV-I 0 W/m 1,1 C 1,4 C 3,2 km/h (1 Bft) 99,08 %
06.02.2016 23:35 1,0 C 97 % 1012,8 hPa 0,0 l/m 1,2 km/h (1 Bft) SO 142 0 min 0,000 mm 0,0 UV-I 0 W/m 0,6 C 1,0 C 3,2 km/h (1 Bft) 97,50 %
06.02.2016 23:40 1,0 C 97 % 1012,7 hPa 0,0 l/m 2,7 km/h (1 Bft) O-NO 65 0 min 0,000 mm 0,0 UV-I 0 W/m 0,6 C 1,0 C 4,8 km/h (1 Bft) 100,00 %
06.02.2016 23:45 0,8 C 97 % 1012,8 hPa 0,0 l/m 1,3 km/h (1 Bft) O-NO 65 0 min 0,000 mm 0,0 UV-I 0 W/m 0,4 C 0,8 C 4,8 km/h (1 Bft) 99,06 %
06.02.2016 23:50 1,0 C 98 % 1012,6 hPa 0,0 l/m 2,5 km/h (1 Bft) O-NO 65 0 min 0,000 mm 0,0 UV-I 0 W/m 0,7 C 1,0 C 4,8 km/h (1 Bft) 100,00 %
06.02.2016 23:55 1,0 C 98 % 1012,5 hPa 0,0 l/m 0,4 km/h (0 Bft) O-NO 65 0 min 0,000 mm 0,0 UV-I 0 W/m 0,7 C 1,0 C 3,2 km/h (1 Bft) 97,58 %
_ Min-Zeit 06:30 15:40 23:55 - 03:35 - - - - - - 06:30 06:30 04:00 00:05
Minimum _ -2,2 C 80 % 1012,5 hPa - 0,0 km/h (0 Bft) - - - - - - -2,5 C -2,2 C 0,0 km/h (0 Bft) 76,74 %
_ Max-Zeit 15:10 11:35 00:00 00:00 16:05 - - 10:05 13:00 12:20 11:40 15:10 15:10 16:00 00:55
Maximum _ 7,8 C 99 % 1026,5 hPa 0,0 l/m 7,9 km/h
O-NO (2 Bft)
- - 10 min 0,127 mm 1,3 UV-I 527 W/m 5,4 C 7,8 C 12,9 km/h
O-NO (3 Bft)
100,00 %
Durchschnitt _ 1,8 C 95 % 1020,6 hPa #0,0 l/m 2,4 km/h (1 Bft) O-NO - #5:15 h #0,711 mm 0,9 UV-I 187 W/m 1,1 C 1,8 C 4,7 km/h (1 Bft) 98,57 %